Wetbulb
22.85 22.30 22.49 22.66 22.49 22.29 22.69 23.49 24.92 25.18 25.34 25.41 25.86 25.50 25.29 25.41 25.40 25.50 25.41 24.78 25.43 25.82
22.07 22.49 22.12 22.36 22.54 22.93 23.26 25.81 25.72 24.88 24.83 24.94 25.12 24.96 24.59 24.56 24.04 24.72 24.90 24.81 25.05 25.18
21.65 22.26 22.35 22.34 22.04 22.42 23.27 23.81 23.85 23.77 24.01 24.21 24.67 24.45 24.25 24.36 24.71 24.06 24.65 25.20 24.46 24.67
19.63 21.74 22.00 22.42 22.20 22.82 23.91 23.50 23.61 23.76 23.83 23.77 23.58 24.15 23.81 23.65 23.86 23.53 23.75 24.28 24.04 24.24
20.16 20.95 19.83 21.44 22.36 24.64 24.12 24.70 24.21 24.58 24.15 23.91 24.16 24.41 24.36 23.69 24.24 23.95 23.64 23.89 24.08 24.04
18.26 17.97 18.65 19.12 22.30 22.94 23.18 23.73 23.97 24.53 24.03 23.91 24.21 24.29 24.74 25.01 24.76 24.50 24.54 24.72 24.51 24.42
16.12 16.52 17.59 19.86 20.63 22.16 22.04 23.90 23.64 23.97 24.68 24.59 24.37 24.85 24.92 25.06 24.81 24.85 25.29 25.76 25.63 25.30
20.23 19.00 15.86 18.62 19.59 20.78 21.41 21.96 23.83 24.11 23.77 24.16 25.15 26.41 26.65 27.09 26.00 25.75 25.79 26.58 26.82 27.02
19.96 20.24 19.85 19.14 17.37 17.87 18.96 20.16 22.50 24.03 22.77 23.96 26.04 30.06 31.89 31.78 30.10 31.27 31.28 30.99 28.18 27.53
19.90 19.65 19.94 20.39 20.12 17.05 16.22 20.03 20.67 20.83 22.83 23.76 24.97 30.66 32.07 33.22 30.94 31.03 31.22 30.70 31.23 29.17
19.54 19.18 19.67 19.99 19.94 19.33 19.29 19.34 21.36 22.66 22.25 23.30 25.64 30.10 31.55 32.81 30.99 30.47 29.80 30.83 31.19 31.52
18.44 18.07 19.32 18.86 19.08 19.34 20.76 21.34 22.40 22.41 22.13 21.79 22.89 29.47 31.57 31.22 30.13 29.80 29.61 30.11 30.48 31.44
18.58 18.04 17.85 19.05 18.60 21.14 21.54 22.82 23.31 21.75 21.77 24.48 24.09 28.96 30.62 30.76 30.57 28.41 28.05 29.36 29.40 32.29
18.18 18.07 18.78 19.21 20.72 20.72 22.23 22.57 20.41 20.76 21.88 23.24 25.54 25.36 30.13 31.20 29.45 28.08 28.59 26.86 27.36 29.59
MSLP
1024.84 1024.96 1025.02 1025.01 1024.85 1024.82 1024.83 1024.42 1024.08 1024.02 1023.95 1023.80 1023.53 1023.50 1023.48 1023.32 1023.09 1022.87 1022.65 1022.45 1022.22 1021.86
1024.90 1024.97 1024.99 1024.92 1024.89 1024.80 1024.43 1023.94 1023.70 1023.75 1023.65 1023.39 1023.26 1023.12 1022.95 1022.72 1022.38 1022.20 1022.01 1021.75 1021.57 1021.24
1024.83 1024.90 1024.96 1025.02 1024.79 1024.40 1024.05 1023.96 1023.83 1023.56 1023.34 1023.14 1022.93 1022.62 1022.42 1022.07 1021.76 1021.56 1021.26 1020.97 1020.68 1020.37
1024.65 1024.78 1024.90 1024.67 1024.38 1023.98 1023.71 1023.73 1023.60 1023.34 1023.02 1022.73 1022.37 1022.03 1021.67 1021.30 1021.08 1020.84 1020.51 1020.21 1019.90 1019.46
1024.43 1024.45 1024.31 1024.07 1023.78 1023.46 1023.35 1023.22 1023.09 1022.65 1022.39 1022.09 1021.64 1021.19 1020.79 1020.46 1020.16 1019.87 1019.48 1019.10 1018.88 1018.39
1024.14 1023.98 1023.55 1023.32 1023.06 1023.02 1022.88 1022.80 1022.28 1021.94 1021.74 1021.26 1020.76 1020.35 1019.91 1019.53 1019.09 1018.70 1018.27 1017.89 1017.57 1017.09
1023.63 1023.31 1022.92 1022.61 1022.48 1022.34 1022.28 1021.89 1021.51 1021.29 1020.91 1020.38 1019.91 1019.42 1018.91 1018.43 1017.86 1017.25 1016.73 1016.22 1015.77 1015.41
1022.91 1022.61 1022.44 1022.10 1021.90 1021.76 1021.44 1021.09 1020.89 1020.47 1019.93 1019.51 1019.02 1018.34 1017.67 1016.95 1016.33 1015.73 1014.97 1014.33 1013.90 1013.69
1022.34 1022.34 1021.93 1021.62 1021.48 1021.09 1020.76 1020.55 1020.23 1019.70 1019.22 1018.54 1017.94 1017.14 1016.11 1015.25 1014.71 1014.13 1013.59 1012.63 1012.20 1011.80
1022.18 1021.81 1021.47 1021.36 1020.96 1020.62 1020.44 1020.03 1019.55 1019.03 1018.49 1017.75 1017.11 1016.24 1015.13 1014.27 1013.69 1013.22 1012.52 1011.80 1010.97 1010.52
1021.77 1021.41 1021.28 1020.97 1020.56 1020.33 1019.98 1019.47 1018.94 1018.31 1017.72 1017.09 1016.36 1015.46 1014.41 1013.52 1013.01 1012.41 1011.70 1010.93 1010.10 1009.52
1021.41 1021.27 1020.98 1020.56 1020.26 1019.94 1019.42 1018.83 1018.24 1017.72 1017.05 1016.47 1015.70 1014.78 1013.65 1012.82 1012.40 1011.59 1010.88 1010.14 1009.44 1008.71
1021.19 1020.98 1020.51 1020.08 1019.85 1019.31 1018.85 1018.26 1017.68 1017.05 1016.43 1015.79 1014.86 1014.02 1013.02 1012.22 1011.63 1010.84 1010.27 1009.53 1008.85 1008.17
1020.94 1020.40 1019.90 1019.55 1019.11 1018.77 1018.25 1017.70 1017.24 1016.58 1015.81 1015.01 1014.21 1013.48 1012.54 1011.68 1011.12 1010.53 1009.66 1009.18 1008.48 1007.81
Wind_Speed
5 3 4 4 4 4 4 4 5 6 6 6 6 6 6 6 6 8 7 10 9 9
5 5 5 6 5 4 5 6 7 6 8 7 7 7 7 7 8 8 9 10 11 10
4 5 5 5 6 6 6 7 7 7 8 8 9 8 8 9 9 10 9 9 12 11
4 5 6 6 6 7 8 8 9 9 9 10 10 11 10 11 12 13 13 13 13 15
6 6 6 6 6 8 10 10 10 10 11 11 12 12 12 13 13 14 15 15 14 16
6 7 7 7 7 7 8 10 11 11 11 12 12 13 13 14 14 15 16 16 16 17
6 7 6 6 6 8 8 9 9 11 11 12 13 14 14 15 16 17 16 18 19 19
6 4 5 6 6 6 6 7 9 12 12 12 12 11 13 15 17 17 19 20 20 19
5 6 6 4 5 6 6 6 9 10 11 13 10 21 25 23 13 13 12 17 17 19
6 6 5 6 7 5 6 7 9 11 11 11 12 24 25 26 13 12 11 14 13 14
5 5 7 8 8 8 8 9 10 10 11 11 11 24 25 25 12 11 12 13 13 12
5 7 8 8 9 9 10 10 9 9 11 11 12 22 23 20 11 9 12 11 11 12
6 6 8 9 9 10 9 10 9 10 11 16 13 20 22 19 8 7 8 9 10 18
8 8 8 9 7 8 9 9 8 10 11 11 10 11 22 21 10 7 7 8 9 8
Wind_Direction
326 311 294 290 299 302 280 279 277 277 273 275 283 285 276 277 271 266 264 266 261 266
310 304 297 309 295 280 286 290 287 298 291 283 279 274 274 274 272 271 271 265 266 269
287 298 298 292 285 288 296 296 290 291 287 286 283 281 279 278 271 268 266 265 263 262
246 257 265 267 277 284 291 294 291 288 288 283 279 275 272 269 269 267 266 262 261 262
234 239 246 256 266 283 286 282 278 283 284 279 278 275 273 270 269 266 264 262 258 258
243 238 243 245 254 261 272 278 280 281 278 276 276 275 272 269 267 263 262 261 258 256
261 250 247 246 247 256 255 273 280 276 276 278 277 273 270 267 263 259 257 255 251 249
275 276 265 266 259 258 259 276 276 281 280 276 274 271 266 257 256 257 257 255 252 248
290 280 275 279 275 276 277 274 278 282 282 283 277 284 290 289 283 281 282 272 248 243
276 284 306 302 300 302 287 285 289 285 282 284 287 293 295 298 299 294 292 290 298 250
302 318 306 304 309 301 291 288 286 286 288 288 287 297 301 301 306 292 293 291 292 275
319 298 302 302 298 290 291 293 288 285 288 289 287 294 302 305 300 286 296 296 297 297
299 295 295 292 288 286 287 287 293 292 289 284 292 294 305 310 301 294 302 304 307 308
298 292 285 279 280 291 285 290 290 291 289 284 287 305 311 314 321 310 303 315 314 308